EDRS-C

Last updated on Sun Jun 21 2026 00:03:08 GMT+0000 (Coordinated Universal Time)

1 44475U 19049A 26171.46318921 -.00000267 00000+0 00000+0 0 9992 2 44475 0.0174 99.2418 0000842 351.5130 127.1350 1.00270266 25249
UTC large
Height (km)
Speed (km/s)
/
Latitude / Longitude
Inclination (degrees)
Orbital Period (minutes)
Azimuth
Elevation
Range (km)
Doppler Factor

Next 0 passes for location: London (51.5072 / 0.1276)

No passes found over London.
EDRS-C